CAPE
0 0 23 114 0 0 0 0 0 0 0 0 0 0 0 0 0 0 0 0 0 0 5 0 2 39 204 190 60 72 3 4 1 2 4 4 2 2 2 2 1 1 1 1 0 0 0 0 0
0 0 41 43 0 0 0 0 0 0 4 23 7 0 0 0 0 0 0 0 0 2 8 0 0 52 129 31 16 51 1 3 2 1 2 4 1 2 2 3 3 2 0 1 1 0 0 0 0
0 0 2 16 4 0 0 0 0 0 33 105 72 0 0 0 0 0 0 1 0 1 14 64 79 61 73 15 15 70 0 3 5 0 1 2 3 2 3 5 6 4 2 1 0 0 0 0 0
0 0 0 4 0 0 0 9 13 18 32 51 42 7 0 0 0 0 0 0 0 0 0 34 122 166 106 29 12 78 60 29 4 0 1 3 4 3 7 3 1 0 0 0 0 0 0 0 0
0 0 0 0 0 0 0 24 20 29 20 41 13 0 0 0 0 0 0 0 0 0 3 45 96 107 54 24 87 150 24 0 0 0 0 0 2 0 1 0 0 0 0 0 0 0 0 0 0
0 0 0 0 0 1 0 29 11 24 15 20 14 0 0 0 0 0 0 0 0 0 3 37 35 57 70 79 52 2 0 0 0 0 0 0 0 0 0 0 0 0 0 0 0 0 0 0 0
4 1 0 0 0 0 0 57 48 33 36 17 0 0 0 0 0 0 0 0 0 0 3 31 19 9 2 0 0 0 0 0 0 0 0 0 0 0 0 0 0 0 0 0 0 0 0 0 0
13 14 1 0 0 0 0 6 42 36 15 13 0 0 0 0 0 0 0 0 0 0 0 1 0 0 0 0 0 0 0 0 0 0 0 0 0 0 0 0 0 0 0 0 0 0 0 0 0
39 26 9 0 0 0 0 6 19 5 19 11 9 0 0 0 0 0 0 0 0 0 0 0 0 0 0 0 0 0 0 0 0 0 0 0 0 0 0 0 0 0 0 0 0 1 3 8 4
43 21 6 0 0 0 0 0 3 12 35 28 27 1 0 0 0 0 0 0 1 0 0 0 0 0 0 0 0 0 0 0 0 0 0 0 0 0 0 0 0 0 0 0 3 15 8 8 8
47 12 37 3 0 0 0 0 0 0 1 0 2 7 0 0 0 0 0 0 0 0 2 0 0 0 0 0 0 0 0 0 0 0 0 0 0 0 0 0 0 0 0 3 13 7 1 0 0
24 35 32 10 0 0 0 0 0 0 0 1 12 0 0 0 0 0 0 0 0 0 1 0 0 0 0 0 0 0 0 0 0 0 0 0 0 0 0 0 3 7 9 3 0 0 0 0 0
26 13 48 38 5 9 2 0 0 0 0 0 74 13 0 0 0 0 0 0 0 0 0 0 0 0 0 0 0 0 0 0 0 0 0 0 0 0 2 4 9 4 0 0 0 0 0 0 0
11 31 32 33 9 5 8 1 0 0 0 1 18 0 0 0 0 0 0 0 0 0 0 0 0 0 0 0 0 0 0 0 0 0 0 0 2 3 4 0 0 0 0 0 0 0 0 0 0
10 36 12 10 16 25 21 2 0 0 8 17 3 3 0 0 0 0 0 0 0 0 0 0 0 0 0 0 0 0 0 0 1 2 5 2 5 5 0 0 0 0 0 0 0 0 0 0 0
6 43 16 2 1 11 17 0 0 0 0 4 14 0 0 0 0 0 0 0 0 0 0 0 0 0 0 1 1 0 0 2 0 0 0 0 0 0 0 0 0 0 0 0 0 0 0 0 0
77 2 2 13 5 17 2 4 0 0 0 0 12 0 0 0 0 0 0 0 0 0 0 0 0 0 0 0 3 0 0 0 0 0 0 0 0 0 0 0 0 0 0 0 0 0 0 0 0
0 8 2 3 0 0 12 5 0 0 3 0 2 3 0 0 0 0 0 0 0 0 0 0 5 0 0 1 0 0 0 0 0 0 0 0 0 0 0 0 0 0 0 0 0 0 0 0 0
2 18 0 2 0 1 0 0 0 0 17 24 29 7 2 0 0 0 0 0 0 0 0 0 0 0 0 0 0 0 0 0 0 0 0 0 0 0 0 0 0 0 0 0 0 0 0 0 0
53 14 1 1 0 0 0 0 0 0 0 23 43 16 2 0 0 0 0 0 0 0 0 0 0 0 0 0 0 0 0 0 0 0 0 0 0 0 0 0 0 0 0 0 0 0 0 0 0
32 1 0 0 0 1 0 0 0 0 0 3 52 22 14 1 0 0 0 0 0 0 0 0 0 0 0 0 0 0 0 0 0 0 0 0 0 0 0 0 0 0 0 0 0 0 0 0 0
2 0 1 1 1 0 0 0 2 0 0 6 25 69 41 23 1 0 0 0 0 0 0 0 0 0 0 0 0 0 0 0 0 0 0 0 0 0 0 0 0 0 0 0 0 0 0 0 0
0 0 0 1 1 0 1 0 0 2 5 5 34 43 94 62 35 0 0 0 0 0 0 0 0 0 0 0 0 0 0 0 0 0 0 0 0 0 0 0 0 0 0 0 0 0 0 0 0
1 0 2 1 0 0 0 0 0 0 0 7 49 55 79 35 42 12 0 0 0 0 0 0 0 0 0 0 0 0 0 0 0 0 0 0 0 0 0 0 0 0 0 0 0 0 0 0 0
30 2 0 0 0 0 0 0 0 0 0 0 2 32 31 29 1 0 0 0 0 0 0 0 0 0 0 0 0 0 0 0 0 0 0 0 0 0 0 0 0 0 0 0 0 0 0 0 0
1 0 0 0 0 0 0 0 0 0 0 0 1 57 39 2 0 0 0 0 0 0 0 0 0 0 0 0 0 0 0 0 0 0 0 0 0 0 0 0 0 0 0 0 0 0 0 0 0
2 3 0 0 0 0 0 0 0 0 0 0 0 18 47 0 0 0 0 0 0 0 0 0 0 0 0 0 0 0 0 0 0 0 0 0 0 0 0 0 0 0 0 0 0 0 0 0 0
1 0 0 0 0 0 0 0 0 0 0 0 0 31 0 0 1 3 4 4 6 2 0 0 0 0 0 0 0 0 0 0 0 0 0 0 0 0 0 0 0 0 0 0 0 0 0 0 0
6 0 0 0 0 0 0 0 1 0 0 0 0 0 0 1 3 4 4 2 3 4 6 1 1 0 0 0 0 0 0 0 0 0 0 0 0 0 0 0 0 0 0 0 0 0 0 0 0
1 0 0 0 0 0 0 0 0 0 1 0 0 1 4 3 6 4 2 2 2 1 1 1 2 1 0 0 0 0 0 0 0 0 0 0 0 0 0 0 0 0 0 0 0 0 0 0 0
CIN
0 0 -228 -102 0 0 0 0 0 0 0 0 0 0 0 0 0 0 0 0 0 -19 -163 0 -38 -67 -10 -20 -79 -74 -1 0 0 0 0 0 0 0 0 0 0 0 0 0 0 0 0 0 0
0 0 -160 -91 0 0 0 0 0 -5 -69 -141 -55 0 0 0 0 0 0 0 0 -113 -194 0 0 -78 -40 -96 -105 -77 0 0 0 0 0 0 0 0 0 0 0 0 0 0 0 0 0 0 0
0 0 -32 -41 -31 0 0 0 0 0 -109 -79 -111 0 0 0 0 0 0 0 0 -35 -185 -82 -69 -87 -68 -127 -109 -76 0 -1 0 0 0 0 0 0 0 0 0 0 0 0 0 0 0 0 0
0 0 0 -32 0 0 0 -51 -80 -71 -95 -120 -132 -63 0 0 0 0 0 0 0 0 -6 -134 -61 -40 -48 -99 -124 -76 -93 -136 0 0 0 0 0 0 0 0 0 0 0 0 0 0 0 0 0
0 0 0 0 0 0 0 -64 -78 -43 -72 -96 -143 -16 0 0 0 0 0 0 0 0 -170 -128 -86 -55 -82 -99 -64 -49 -115 0 0 0 0 0 0 0 0 0 0 0 0 0 0 0 0 0 0
0 0 0 0 0 -132 0 -81 -76 -57 -48 -118 -139 0 0 0 0 0 0 0 0 0 -165 -147 -128 -99 -78 -59 -84 -32 0 0 0 0 0 0 0 0 0 0 0 0 0 0 0 0 0 0 0
-15 -11 0 0 0 0 0 -74 -52 -51 -46 -65 0 0 0 0 0 0 0 0 0 0 -105 -178 -163 -161 -32 0 0 0 0 0 0 0 0 0 0 0 0 0 0 0 0 0 0 0 0 0 0
-19 -5 -1 0 0 0 0 -61 -69 -59 -70 -191 0 -2 0 0 0 0 0 0 0 0 0 -4 0 0 0 0 0 0 0 0 0 0 0 0 0 0 0 0 0 0 0 0 0 0 0 0 0
-16 -1 0 0 0 0 0 -116 -78 -91 -80 -116 -139 -39 0 0 0 0 0 0 0 0 0 0 0 0 0 0 0 0 0 0 0 0 0 0 0 0 0 0 0 0 0 0 0 -6 -17 -23 -16
-1 -2 0 0 0 0 0 -37 -113 -41 -38 -63 -90 -106 0 0 0 0 0 0 0 0 0 0 0 0 0 0 0 0 0 0 0 0 0 0 0 0 0 0 0 0 0 0 -28 -22 -18 -21 -20
0 -2 -2 -17 0 0 0 0 0 0 -6 0 -84 -101 0 0 0 0 0 0 0 0 -1 0 0 0 0 0 0 0 0 0 0 0 0 0 0 0 0 0 0 0 -2 -37 -31 -44 -5 0 0
0 -1 -11 -11 -3 0 0 0 0 0 0 -71 -101 0 0 0 0 0 0 0 0 0 -1 0 0 0 0 0 0 0 0 0 0 0 0 0 0 0 0 0 -24 -25 -29 -30 0 0 0 0 0
0 -1 -7 -36 -21 -28 -17 -2 0 0 0 0 -68 -73 0 0 0 0 0 0 0 0 0 0 0 0 0 0 0 0 0 0 0 0 0 0 0 -3 -14 -12 -21 -20 0 0 0 0 0 0 0
-2 -3 -11 -14 -29 -28 -17 -8 0 0 0 -57 -81 -33 0 0 0 0 0 0 0 0 0 0 0 0 0 0 0 0 0 0 0 0 0 0 -11 -9 -16 0 0 0 0 0 0 0 0 0 0
-11 -2 -5 -7 -8 -10 -11 -1 0 0 -67 -62 -102 -98 0 0 0 0 0 0 0 0 0 0 0 0 0 0 0 0 0 0 -20 -22 -20 -11 -11 -23 0 0 0 0 0 0 0 0 0 0 0
-4 -2 0 -7 -29 -2 -2 0 0 0 0 -45 -101 0 0 0 0 0 0 0 0 0 0 0 0 0 0 -26 -4 -2 0 -23 -18 0 0 0 0 0 0 0 0 0 0 0 0 0 0 0 0
0 -9 -1 0 -12 -15 0 0 0 0 0 0 -77 0 0 0 0 0 0 0 0 0 0 0 0 0 0 -2 -37 -8 0 0 0 0 0 0 0 0 0 0 0 0 0 0 0 0 0 0 0
0 -1 0 0 0 -4 -1 0 0 0 -55 0 -66 -129 0 0 0 0 0 0 0 0 0 0 -14 0 0 -14 0 0 0 0 0 0 0 0 0 0 0 0 0 0 0 0 0 0 0 0 0
0 -1 -1 -3 0 -3 0 0 0 0 -30 -34 -45 -82 -142 0 0 0 0 0 0 0 0 0 0 -9 0 0 0 0 0 0 0 0 0 0 0 0 0 0 0 0 0 0 0 0 0 0 0
-2 -1 -2 -4 0 0 0 0 0 0 0 -27 -40 -82 -72 0 0 0 0 0 0 0 0 0 0 0 0 0 0 0 0 0 0 0 0 0 0 0 0 0 0 0 0 0 0 0 0 0 0
-1 0 0 0 0 0 0 0 0 0 0 -10 -31 -55 -101 -90 0 0 0 0 0 0 0 0 0 0 0 0 0 0 0 0 0 0 0 0 0 0 0 0 0 0 0 0 0 0 0 0 0
-8 0 0 0 0 0 0 0 0 0 0 -3 -18 -34 -40 -72 -108 0 0 0 0 0 0 0 0 0 0 0 0 0 0 0 0 0 0 0 0 0 0 0 0 0 0 0 0 0 0 0 0
0 0 0 0 0 0 0 0 0 0 0 0 0 -23 -25 -58 -75 -5 0 0 0 0 0 0 0 0 0 0 0 0 0 0 0 0 0 0 0 0 0 0 0 0 0 0 0 0 0 0 0
-21 0 0 0 0 0 0 0 0 0 0 0 0 -34 -28 -44 -48 -39 0 0 0 0 0 0 0 0 0 0 0 0 0 0 0 0 0 0 0 0 0 0 0 0 0 0 0 0 0 0 0
-22 -7 -4 -7 0 0 0 0 0 0 0 0 -26 -33 -49 -52 -41 0 0 0 0 0 0 0 0 0 0 0 0 0 0 0 0 0 0 0 0 0 0 0 0 0 0 0 0 0 0 0 0
-3 -43 0 0 0 0 0 0 0 0 0 0 -2 -55 -42 -11 0 0 0 0 0 0 0 0 0 0 0 0 0 0 0 0 0 0 0 0 0 0 0 0 0 0 0 0 0 0 0 0 0
-18 -12 0 0 0 0 0 0 0 0 0 0 -5 -7 -12 0 0 0 0 0 0 0 0 0 0 0 0 0 0 0 0 0 0 0 0 0 0 0 0 0 0 0 0 0 0 0 0 0 0
-11 0 0 0 0 0 0 0 0 0 0 0 -1 0 -3 0 0 0 0 0 0 0 0 0 0 0 0 0 0 0 0 0 0 0 0 0 0 0 0 0 0 0 0 0 0 0 0 0 0
0 0 0 0 0 0 0 0 0 0 0 0 0 0 0 0 0 0 0 0 0 0 0 0 0 0 0 0 0 0 0 0 0 0 0 0 0 0 0 0 0 0 0 0 0 0 0 0 0
0 0 0 0 0 0 0 0 0 0 0 0 0 0 0 0 0 0 0 0 0 0 0 0 0 0 0 0 0 0 0 0 0 0 0 0 0 0 0 0 0 0 0 0 0 0 0 0 0
Wind_Speed
25 25 18 17 22 22 26 25 21 19 18 19 13 12 5 13 13 18 11 4 11 13 12 14 16 16 16 11 16 13 12 12 10 7 7 9 12 17 18 19 21 20 21 21 21 22 22 21 19
26 20 18 19 26 28 29 25 27 22 16 7 11 13 14 17 15 13 6 7 12 12 10 10 14 15 13 13 15 15 13 11 9 6 7 9 14 15 17 18 19 20 20 20 21 21 21 20 18
25 20 21 25 28 32 28 24 25 24 11 15 15 16 16 16 15 3 8 7 11 10 9 9 12 15 19 18 19 18 15 13 7 6 8 10 12 14 15 16 17 18 19 20 20 20 21 20 20
22 21 21 31 34 30 28 22 23 20 18 17 15 17 17 20 5 7 6 7 10 9 9 10 9 11 13 16 20 19 16 11 7 7 8 9 11 13 14 15 17 18 19 19 20 20 20 21 21
22 22 32 35 38 29 27 30 23 24 22 19 16 17 17 10 9 2 5 7 10 7 6 8 9 6 7 9 14 10 7 8 7 7 7 9 10 11 13 15 16 17 18 19 20 20 20 21 22
22 21 33 44 38 29 30 28 27 24 24 20 19 15 15 12 2 3 5 5 7 8 4 5 8 8 8 10 9 8 6 7 7 6 7 8 10 12 13 14 16 17 18 19 19 20 21 22 23
27 30 35 40 38 36 32 27 29 25 25 24 16 17 18 9 5 5 5 4 5 5 4 5 6 6 7 7 7 6 5 6 7 7 7 9 10 12 13 14 15 16 17 18 19 18 21 22 24
26 28 40 34 41 42 30 29 27 25 26 17 19 22 20 11 8 6 6 5 5 5 4 5 6 5 5 3 4 3 4 5 6 6 7 9 10 11 13 14 15 16 17 18 20 21 22 24 25
24 41 47 40 34 33 26 30 28 23 22 24 22 24 23 8 8 8 9 8 7 7 6 6 6 5 3 2 3 3 4 5 5 6 7 8 10 11 12 14 15 16 17 19 20 21 23 24 25
33 46 48 33 34 32 34 33 33 28 30 28 25 25 6 9 10 11 11 11 10 10 8 8 7 6 4 2 0 2 3 3 5 5 6 8 9 10 12 13 14 16 18 18 20 21 23 23 24
36 50 42 34 34 35 37 38 31 33 38 35 31 22 10 11 12 12 13 12 12 10 10 9 8 7 5 4 3 2 1 2 3 4 6 8 9 11 11 13 15 16 18 18 20 21 23 25 25
44 42 42 36 32 35 43 36 36 36 36 35 27 19 15 12 12 13 13 13 11 10 10 10 8 8 6 5 4 2 1 2 4 5 6 8 9 10 11 13 15 16 18 20 21 22 23 24 25
50 44 40 40 38 37 39 43 45 41 37 33 29 20 20 20 14 14 14 13 11 11 10 10 9 8 8 6 5 4 5 3 5 6 6 8 10 11 12 13 15 17 18 19 21 22 23 24 25
43 43 47 37 39 39 44 46 44 45 38 35 29 20 18 21 15 15 14 12 11 11 11 10 9 8 7 6 5 5 5 7 5 4 7 8 10 10 11 13 15 17 19 20 21 22 23 24 25
41 47 44 46 39 37 37 51 63 48 39 35 30 23 24 21 19 15 15 14 13 12 12 11 10 8 7 6 5 6 5 2 3 7 8 8 9 9 11 13 15 18 19 20 21 22 24 26 25
44 40 51 44 38 38 32 62 49 50 42 40 37 27 29 24 20 18 16 15 13 13 14 13 11 9 9 8 6 5 5 4 5 6 8 8 9 10 12 14 16 18 19 20 21 22 25 26 26
48 49 51 43 36 33 38 52 46 44 44 44 38 36 30 26 23 20 17 16 15 14 14 13 11 10 9 9 6 5 4 4 6 7 8 9 10 11 12 14 17 18 19 19 20 24 24 27 26
48 53 38 43 39 36 41 45 37 39 41 47 39 36 30 28 25 22 20 18 17 17 15 14 13 10 9 7 6 5 5 6 8 9 9 10 11 12 13 15 16 17 18 20 21 23 26 26 24
39 52 49 39 29 35 46 49 48 42 41 45 41 37 35 33 25 23 22 20 20 21 18 15 14 12 9 8 7 6 7 7 8 10 11 11 11 12 13 15 16 18 20 21 21 22 26 29 23
40 41 44 40 32 34 42 50 51 53 44 43 41 40 34 32 25 23 22 21 20 19 20 18 16 13 12 10 9 9 7 8 9 10 11 12 12 12 13 14 17 19 20 22 24 24 24 26 28
52 52 44 39 32 37 40 49 50 50 44 45 44 43 32 30 27 23 22 20 19 18 18 18 17 14 12 10 9 8 7 8 11 11 11 12 12 12 13 15 17 19 21 23 24 25 25 25 28
41 38 32 33 36 44 33 50 46 47 51 50 48 39 36 35 28 25 23 22 20 19 16 15 15 14 12 10 10 10 10 9 12 10 10 11 12 12 13 15 17 19 20 22 24 25 26 25 26
35 29 27 28 33 35 37 41 43 44 48 47 52 41 36 31 27 24 21 19 19 17 16 15 15 14 13 12 11 10 10 10 8 8 9 11 12 14 14 15 17 19 20 22 24 26 27 26 25
20 24 27 29 29 41 39 39 46 48 41 49 45 39 32 27 26 25 21 19 18 17 15 15 14 14 13 13 12 11 10 8 7 8 9 10 12 14 15 16 18 19 20 23 24 24 24 23 24
30 28 31 32 34 41 33 36 40 44 40 40 39 40 35 28 24 24 21 20 18 17 16 15 14 14 13 13 13 12 10 10 8 8 10 10 11 12 14 15 18 20 20 21 22 21 22 23 23
37 36 31 24 28 33 29 38 36 31 40 36 35 35 32 29 24 22 21 21 18 17 16 15 14 14 13 13 13 11 9 10 9 8 7 9 10 13 13 16 18 18 19 18 19 20 21 21 22
36 36 29 22 27 28 28 27 29 28 34 35 28 26 28 26 27 23 18 21 18 16 17 15 15 14 13 12 11 9 9 7 6 6 7 8 11 13 17 17 18 15 15 16 17 19 20 21 22
29 28 24 23 23 25 25 26 28 29 30 36 32 28 25 26 24 19 16 20 19 17 13 13 14 13 14 12 9 9 5 7 6 6 8 10 12 14 15 12 12 12 14 15 16 18 19 20 22
28 26 16 16 18 20 23 26 19 25 28 35 28 26 24 24 22 21 17 17 17 13 12 8 11 8 12 10 9 6 5 4 6 7 10 14 13 12 10 10 10 12 14 15 17 18 19 21 21
20 24 17 17 17 14 17 20 21 21 19 24 24 23 20 19 19 20 17 16 15 15 10 10 11 10 9 7 4 6 1 2 6 12 13 10 7 10 9 10 11 11 13 15 16 19 19 20 21
Wind_Direction
293 290 292 289 267 268 261 265 278 277 283 277 291 282 312 299 295 279 302 351 112 119 119 116 118 116 113 99 104 89 74 61 49 30 32 40 49 63 66 65 67 60 53 44 33 28 24 12 357
293 299 289 276 261 258 259 267 267 271 288 309 291 289 287 284 291 297 305 78 116 117 116 110 116 115 110 105 106 100 83 68 48 22 26 39 57 60 60 61 62 60 54 44 34 28 20 3 349
292 293 278 263 259 254 259 268 273 274 279 278 286 288 286 289 291 339 301 94 114 116 111 107 112 117 120 114 116 109 94 79 35 22 33 43 48 57 57 57 54 51 49 39 30 22 21 3 354
288 282 279 259 256 259 259 269 286 279 269 283 287 286 290 282 307 286 98 104 116 117 108 107 111 114 115 114 119 112 99 72 32 19 27 38 48 54 50 59 45 45 42 39 28 13 6 359 351
286 278 262 257 254 263 264 265 278 274 270 275 281 282 288 293 292 107 120 117 122 120 111 106 111 118 113 107 108 97 76 53 39 27 31 40 46 47 49 48 44 40 38 36 28 9 357 353 353
276 277 262 251 255 264 262 269 272 276 268 276 276 280 284 285 273 175 142 136 132 126 120 115 114 114 113 109 104 94 70 47 31 22 32 41 47 50 49 45 39 38 36 31 19 2 358 359 353
266 265 262 256 256 258 261 270 265 273 268 269 276 275 281 270 244 197 181 163 157 151 148 124 125 121 114 111 102 86 62 45 40 45 49 48 47 43 38 36 36 32 25 21 33 45 343 346 347
265 267 259 261 253 253 265 267 269 271 270 275 269 271 276 253 224 212 203 184 176 173 188 153 133 131 121 114 98 70 47 42 44 50 51 47 39 37 39 35 29 26 25 19 3 357 357 355 354
263 257 254 254 255 257 267 265 268 276 270 265 266 270 275 198 202 203 211 219 206 202 201 183 170 151 143 118 90 71 52 53 57 57 51 40 34 36 33 29 17 7 1 354 355 6 2 2 2
254 252 253 261 258 261 263 264 265 268 261 259 265 268 262 187 192 196 200 209 212 211 206 194 189 184 179 230 109 49 40 49 55 45 38 27 21 20 15 10 4 355 352 5 8 9 8 8 7
256 254 256 258 259 261 259 259 269 264 257 257 261 261 225 196 208 211 218 214 219 211 215 206 198 203 208 230 260 293 349 28 23 25 7 357 6 7 6 356 350 352 358 9 10 9 7 4 6
258 259 257 259 259 260 254 260 261 260 258 254 255 251 230 200 204 206 210 215 211 203 203 208 203 211 222 232 240 248 257 296 326 329 342 350 359 353 352 345 349 5 6 2 4 3 3 3 3
255 258 259 255 257 257 259 256 253 255 255 253 247 243 237 236 224 229 224 222 211 197 198 193 200 214 225 223 241 246 268 283 298 314 343 342 338 333 330 346 356 356 360 4 4 3 1 1 1
254 258 255 259 253 258 255 254 253 249 256 252 246 244 220 231 225 229 219 208 204 201 194 193 193 206 216 227 232 244 268 280 305 343 327 329 327 332 348 353 355 357 0 2 2 2 1 360 2
258 255 254 251 252 255 256 252 240 245 251 251 246 245 235 233 234 217 211 205 204 212 208 201 193 194 206 223 224 251 270 289 314 309 314 319 326 345 350 354 355 353 355 357 359 358 357 355 359
249 254 245 249 249 250 249 244 251 243 248 248 243 241 236 236 234 231 223 214 208 213 217 216 224 210 222 236 224 252 274 291 305 312 314 320 333 345 351 352 350 351 354 357 356 355 354 355 357
239 244 244 245 244 249 243 249 252 247 244 242 241 238 236 237 235 231 222 216 216 216 217 215 219 212 222 238 240 257 275 291 304 308 310 319 333 343 348 349 350 353 357 360 360 356 356 353 354
236 235 241 241 245 246 247 248 254 245 240 238 239 238 234 234 232 230 226 223 223 225 221 217 225 223 229 220 236 259 273 287 300 304 308 321 332 340 347 351 353 357 357 356 356 356 355 354 354
246 237 241 244 252 245 245 249 247 245 241 235 235 234 235 236 234 232 230 229 229 231 225 219 221 227 218 218 225 247 255 279 297 302 308 321 334 342 349 352 353 353 352 351 352 352 350 350 353
236 233 236 246 251 250 250 250 248 239 242 236 232 232 232 233 231 229 229 231 230 228 228 228 222 224 222 230 244 251 255 282 297 305 313 323 333 343 349 351 351 350 351 350 349 349 346 348 349
231 234 238 242 250 251 254 255 245 238 240 238 233 230 231 229 227 225 226 227 227 226 222 224 221 218 222 227 233 244 265 281 293 303 314 322 334 343 349 351 351 351 350 348 350 349 348 345 349
222 231 236 241 244 244 246 248 243 234 235 236 231 233 232 230 228 227 227 229 225 227 222 219 216 216 218 218 221 215 249 265 287 300 316 323 333 341 348 350 350 351 353 352 351 352 348 347 344
229 226 236 243 248 251 249 252 247 230 230 234 223 228 229 225 224 221 220 224 228 224 218 218 217 220 221 223 222 227 256 273 284 301 315 322 329 335 341 347 350 352 352 353 352 350 350 350 349
219 225 236 244 251 248 248 249 243 229 208 230 226 225 227 225 224 225 226 224 226 229 223 220 219 227 228 232 231 233 239 255 270 292 303 313 323 331 338 345 347 349 351 349 350 353 355 358 357
216 220 228 237 242 248 254 242 243 236 221 226 227 225 225 223 220 222 220 224 225 225 228 222 221 230 229 232 241 245 250 265 267 282 300 308 318 328 339 346 345 347 352 351 353 1 1 359 360
213 216 222 233 242 253 250 238 238 245 223 220 227 224 223 225 225 225 225 227 221 226 230 230 228 230 238 237 243 249 254 271 274 287 298 319 321 329 344 342 342 346 348 2 2 5 4 3 2
208 211 222 249 258 250 241 247 245 242 217 214 217 221 221 223 227 227 223 228 222 228 229 235 237 239 237 241 250 249 267 258 267 294 315 323 323 332 335 338 340 352 359 3 1 2 1 0 359
211 204 221 249 245 243 238 233 234 228 215 212 218 223 223 220 224 224 221 232 239 236 236 243 241 244 248 249 253 252 245 282 288 294 308 317 329 328 333 347 354 358 357 360 1 360 360 357 355
198 201 236 251 258 247 234 232 244 233 222 212 219 222 222 221 223 223 228 237 242 243 241 237 247 245 251 256 245 242 265 299 295 303 321 318 325 328 347 356 355 351 351 356 355 353 352 350 350
213 216 239 253 245 267 242 235 243 232 222 212 210 217 220 222 225 228 232 237 246 244 245 269 267 259 250 246 247 261 226 290 303 308 309 335 355 344 346 344 351 354 351 349 348 346 346 344 343